Location: Byhalia Creek
(34.8270°N, 89.8040°W)
Time: 07:53:49
(UTC+00:00)

ACS3 Solar Sail - Pass Details

Date: 22 April 2026
Orbit: 894 x 947 km, 97.2° (Epoch: 12 May)

Event Time Altitude Azimuth Distance (km) Brightness Sun altitude
Rises 06:29:05 0° 19° (NNE) 3,554 5.6 -42.4°
Reaches altitude 10° 06:31:38 10° 26° (NNE) 2,617 4.6 -42.3°
Enters shadow 06:33:38 21° 36° (NE) 1,940 3.8 -42.2°
